| time (UTC) | temp F | wind direction | speed knots | gust knots | rain 1hr in | rain 24hr in | rain mn in | humidity % | barometer mb |
| 20260504082004 | 60 | 73 | 10.4 | 16.5 | 0.00 | 0.09 | 0.00 | 47 | 1018.1 |
| 20260504081004 | 59 | 75 | 10.4 | 20.9 | 0.00 | 0.09 | 0.00 | 48 | 1017.9 |
| 20260504050004 | 57 | 66 | 7.8 | 14.8 | 0.00 | 0.09 | 0.00 | 51 | 1016.5 |
| 20260504045004 | 57 | 74 | 8.7 | 17.4 | 0.00 | 0.09 | 0.00 | 52 | 1016.5 |
| 20260504044004 | 57 | 71 | 12.2 | 20.0 | 0.00 | 0.09 | 0.00 | 52 | 1016.3 |
| 20260504043004 | 56 | 72 | 7.0 | 14.8 | 0.00 | 0.09 | 0.00 | 57 | 1016.3 |
| 20260504041004 | 56 | 76 | 7.0 | 16.5 | 0.00 | 0.09 | 0.00 | 58 | 1016.2 |
| 20260504040004 | 55 | 72 | 6.1 | 13.9 | 0.00 | 0.09 | 0.00 | 59 | 1016.1 |
| 20260504035004 | 56 | 72 | 7.8 | 13.9 | 0.00 | 0.09 | 0.00 | 58 | 1016.0 |
| 20260504034005 | 55 | 74 | 8.7 | 17.4 | 0.00 | 0.09 | 0.00 | 57 | 1016.0 |
| 20260504031004 | 55 | 75 | 7.0 | 12.2 | 0.00 | 0.09 | 0.00 | 58 | 1016.0 |
| 20260504024004 | 55 | 73 | 7.8 | 19.1 | 0.00 | 0.09 | 0.00 | 59 | 1015.7 |
| 20260504023004 | 55 | 73 | 8.7 | 20.9 | 0.00 | 0.09 | 0.00 | 60 | 1015.6 |
| 20260504022004 | 55 | 73 | 6.1 | 11.3 | 0.00 | 0.09 | 0.00 | 62 | 1015.7 |
| 20260504020004 | 55 | 73 | 7.0 | 14.8 | 0.00 | 0.09 | 0.00 | 59 | 1015.8 |
| 20260504015004 | 55 | 75 | 8.7 | 19.1 | 0.00 | 0.09 | 0.00 | 59 | 1015.7 |
| 20260504014004 | 55 | 79 | 6.1 | 16.5 | 0.00 | 0.09 | 0.00 | 60 | 1015.8 |
| 20260504013004 | 55 | 73 | 7.8 | 20.0 | 0.00 | 0.09 | 0.00 | 59 | 1016.0 |
| 20260504012004 | 55 | 72 | 9.6 | 20.9 | 0.00 | 0.09 | 0.00 | 59 | 1015.9 |
| 20260504011004 | 55 | 72 | 10.4 | 24.3 | 0.00 | 0.09 | 0.00 | 58 | 1015.9 |
| 20260504010005 | 56 | 77 | 13.0 | 27.8 | 0.00 | 0.09 | 0.00 | 59 | 1015.6 |
| 20260504005004 | 56 | 72 | 11.3 | 20.9 | 0.00 | 0.09 | 0.00 | 58 | 1015.8 |
| 20260504004004 | 56 | 71 | 12.2 | 22.6 | 0.00 | 0.09 | 0.00 | 58 | 1015.7 |
| 20260504001004 | 55 | 72 | 10.4 | 16.5 | 0.00 | 0.09 | 0.00 | 59 | 1015.6 |
| 20260503235004 | 55 | 71 | 11.3 | 21.7 | 0.00 | 0.09 | 0.00 | 59 | 1015.7 |
| 20260503234004 | 55 | 69 | 13.0 | 21.7 | 0.00 | 0.09 | 0.00 | 58 | 1015.6 |
| 20260503233004 | 56 | 73 | 14.8 | 21.7 | 0.00 | 0.09 | 0.00 | 59 | 1015.6 |
| 20260503232004 | 56 | 70 | 15.6 | 25.2 | 0.00 | 0.09 | 0.00 | 57 | 1015.6 |
| 20260503230004 | 56 | 73 | 18.2 | 29.5 | 0.00 | 0.09 | 0.00 | 57 | 1015.3 |
| 20260503225004 | 56 | 70 | 14.8 | 29.5 | 0.00 | 0.09 | 0.00 | 61 | 1015.5 |
| 20260503222004 | 56 | 70 | 12.2 | 26.9 | 0.00 | 0.09 | 0.00 | 60 | 1015.6 |
| 20260503221004 | 56 | 66 | 16.5 | 21.7 | 0.00 | 0.09 | 0.00 | 58 | 1015.5 |
| 20260503214956 | 56 | 71 | 16.5 | 33.0 | 0.00 | 0.09 | 0.00 | 61 | 1015.7 |
| 20260503213956 | 56 | 65 | 15.6 | 25.2 | 0.00 | 0.09 | 0.00 | 59 | 1015.4 |
| 20260503212956 | 56 | 69 | 18.2 | 25.2 | 0.00 | 0.09 | 0.00 | 58 | 1015.5 |
| 20260503211956 | 56 | 68 | 16.5 | 37.4 | 0.00 | 0.09 | 0.00 | 59 | 1015.6 |
| 20260503210956 | 56 | 67 | 13.9 | 22.6 | 0.00 | 0.09 | 0.00 | 59 | 1015.6 |
| 20260503205956 | 56 | 73 | 12.2 | 24.3 | 0.00 | 0.09 | 0.00 | 59 | 1015.6 |
| 20260503203956 | 56 | 71 | 12.2 | 24.3 | 0.00 | 0.09 | 0.09 | 60 | 1015.4 |
| 20260503202956 | 56 | 70 | 12.2 | 21.7 | 0.00 | 0.09 | 0.09 | 61 | 1015.5 |
| 20260503201956 | 56 | 69 | 13.0 | 25.2 | 0.01 | 0.09 | 0.09 | 62 | 1015.3 |
| 20260503200956 | 56 | 67 | 12.2 | 24.3 | 0.01 | 0.09 | 0.09 | 63 | 1015.5 |
| 20260503195956 | 55 | 65 | 13.9 | 27.8 | 0.01 | 0.09 | 0.09 | 65 | 1015.4 |
| 20260503194956 | 54 | 69 | 10.4 | 26.9 | 0.02 | 0.09 | 0.09 | 70 | 1015.3 |
| 20260503193956 | 53 | 70 | 9.6 | 22.6 | 0.02 | 0.09 | 0.09 | 69 | 1015.4 |
| 20260503192956 | 55 | 65 | 14.8 | 26.1 | 0.02 | 0.09 | 0.09 | 66 | 1015.7 |
| 20260503190956 | 54 | 72 | 14.8 | 24.3 | 0.01 | 0.08 | 0.08 | 68 | 1015.1 |
| 20260503184956 | 56 | 55 | 10.4 | 21.7 | 0.02 | 0.07 | 0.07 | 64 | 1014.8 |
| 20260503183956 | 56 | 62 | 12.2 | 26.1 | 0.03 | 0.07 | 0.07 | 65 | 1014.9 |
| 20260503181956 | 54 | 68 | 10.4 | 24.3 | 0.03 | 0.07 | 0.07 | 70 | 1014.7 |
| 20260503180956 | 54 | 74 | 13.0 | 20.0 | 0.03 | 0.07 | 0.07 | 72 | 1014.4 |
| 20260503175956 | 55 | 69 | 13.0 | 22.6 | 0.02 | 0.06 | 0.06 | 71 | 1014.2 |
| 20260503173956 | 54 | 65 | 14.8 | 26.9 | 0.00 | 0.04 | 0.04 | 67 | 1014.5 |
| 20260503172956 | 56 | 73 | 16.5 | 26.1 | 0.00 | 0.04 | 0.04 | 63 | 1014.0 |
| 20260503171956 | 56 | 67 | 14.8 | 22.6 | 0.00 | 0.04 | 0.04 | 63 | 1013.8 |
| 20260503170956 | 56 | 67 | 13.0 | 22.6 | 0.00 | 0.04 | 0.04 | 63 | 1014.1 |
| 20260503150956 | 54 | 56 | 7.8 | 26.9 | 0.00 | 0.04 | 0.04 | 69 | 1013.6 |
| 20260503130956 | 55 | 41 | 9.6 | 27.8 | 0.00 | 0.04 | 0.04 | 62 | 1013.7 |